Location: ??????
(38.1303°N, 24.0039°E)
Time: 13:12:23
(UTC+00:00)

CZ-2D R/B - Pass Details

Date: 20 June 2021
Orbit: 551 x 639 km, 97.9° (Epoch: 01 August)

Event Time Altitude Azimuth Distance (km) Brightness Sun altitude
Rises 01:57:52 0° 9° (N) 2,844 7.8 -10.8°
Reaches altitude 10° 02:00:04 10° 7° (N) 1,924 6.9 -10.5°
Maximum altitude 02:04:12 70° 284° (WNW) 618 3.4 -9.9°
Drops below altitude 10° 02:08:13 10° 201° (SSW) 1,860 5.5 -9.3°
Enters shadow 02:08:26 - 201° (SSW) 1,952 5.6 -9.3°
